,

(GMT )
Al Udeid

Weather History for KQIR - November, 2012

Change the Weather History Date:

Tuesday, November 27, 2012

  Actual Average Record
Temperature  
Mean Temperature 74 °F -  
Max Temperature 81 °F - - ()
Min Temperature 67 °F - - ()
Cooling Degree Days 10    
Growing Degree Days 24 (Base 50)    
Moisture  
Dew Point 60 °F    
Average Humidity 63    
Maximum Humidity 87    
Minimum Humidity 41    
Precipitation  
Precipitation 0.00 in - - ()
Sea Level Pressure  
Sea Level Pressure 29.98 in    
Wind  
Wind Speed 13 mph ()    
Max Wind Speed 20 mph    
Max Gust Speed 26 mph    
Visibility 5.7 miles    
Events      
Averages and records for this station are not official NWS values.
T = Trace of Precipitation, MM = Missing Value Source: Averaged Metar Reports

Daily Weather History Graph

Daily Weather History Graph

Search for Another Location

Airport or City:

Trip Planner

Search our weather history database for the weather conditions in past years. The results will help you decide how hot, cold, wet, or windy it might be!

Date:

Astronomy

Nov. 27, 2012 Rise Set
Actual Time 6:00 AM +03 4:44 PM +03
Civil Twilight 5:35 AM +03 5:08 PM +03
Nautical Twilight 5:07 AM +03 5:37 PM +03
Astronomical Twilight 4:39 AM +03 6:04 PM +03
Moon 3:57 PM +03 (11/27) 4:48 AM +03 (11/27)
Length of Visible Light 11h 33m
Length of Day
10h 43m
Waxing Gibbous, 99% of the Moon is Illuminated
Nov 27
Waxing Gibbous
Nov 28
Full
Dec 6
Last Quarter
Dec 13
New
Dec 20
First Quarter

Hourly Weather History & Observations

Time (+03) Temp. Heat Index Dew Point Humidity Pressure Visibility Wind Dir Wind Speed Gust Speed Precip Events Conditions
12:01 AM 77.0 °F - 59.0 °F 54% 29.91 in 3.7 mi WNW 16.1 mph 26.5 mph N/A   Haze
12:55 AM 74.3 °F - 64.6 °F 72% 29.91 in 3.7 mi NW 15.0 mph - N/A   Haze
1:55 AM 73.2 °F - 64.9 °F 75% 29.91 in 5.0 mi NW 17.3 mph - N/A   Haze
2:55 AM 72.0 °F - 65.7 °F 80% 29.91 in 3.7 mi NW 16.1 mph - N/A   Haze
3:55 AM 71.1 °F - 64.8 °F 80% 29.92 in 5.0 mi NW 12.7 mph - N/A   Haze
4:55 AM 70.2 °F - 63.7 °F 80% 29.92 in 5.0 mi NW 10.4 mph - N/A   Haze
5:55 AM 69.6 °F - 64.9 °F 85% 29.94 in 5.0 mi NW 12.7 mph - N/A   Haze
6:55 AM 69.8 °F - 65.8 °F 87% 29.97 in 5.6 mi NW 13.8 mph - N/A   Haze
7:55 AM 71.6 °F - 66.2 °F 83% 29.99 in 6.2 mi NW 16.1 mph - N/A   Mostly Cloudy
8:55 AM 74.8 °F - 65.7 °F 73% 30.01 in 6.2 mi NW 13.8 mph - N/A   Unknown
9:55 AM 77.9 °F - 64.0 °F 62% 30.00 in 6.2 mi NNW 18.4 mph - N/A   Clear
10:55 AM 79.2 °F - 63.0 °F 57% 29.99 in 6.2 mi NNW 15.0 mph - N/A   Clear
11:55 AM 81.1 °F 81.4 °F 58.5 °F 46% 29.96 in 6.2 mi North 13.8 mph - N/A   Clear
12:55 PM 81.5 °F 81.1 °F 55.9 °F 41% 29.94 in 6.2 mi NNW 18.4 mph - N/A   Partly Cloudy
1:55 PM 81.1 °F 81.1 °F 56.8 °F 43% 29.93 in 6.2 mi NNW 16.1 mph - N/A   Partly Cloudy
2:55 PM 79.5 °F - 57.6 °F 47% 29.94 in 6.2 mi NNW 19.6 mph - N/A   Clear
3:55 PM 77.5 °F - 56.1 °F 47% 29.96 in 6.2 mi NNW 19.6 mph - N/A   Clear
4:55 PM 75.7 °F - 54.5 °F 48% 29.98 in 6.2 mi NNW 18.4 mph - N/A   Clear
5:55 PM 74.3 °F - 57.4 °F 55% 30.00 in 6.2 mi NNW 15.0 mph - N/A   Clear
6:55 PM 72.9 °F - 56.7 °F 57% 30.02 in 6.2 mi NNW 13.8 mph - N/A   Clear
7:55 PM 71.6 °F - 56.8 °F 60% 30.04 in 6.2 mi NNW 11.5 mph - N/A   Clear
8:55 PM 70.2 °F - 56.7 °F 62% 30.06 in 6.2 mi NNW 10.4 mph - N/A   Clear
9:55 PM 69.3 °F - 56.3 °F 63% 30.06 in 6.2 mi NNW 11.5 mph - N/A   Clear
10:55 PM 68.5 °F - 55.6 °F 63% 30.06 in 6.2 mi NNW 12.7 mph - N/A   Clear
11:55 PM 67.1 °F - 54.3 °F 63% 30.06 in 6.2 mi NNW 11.5 mph - N/A   Clear